• In Uzbekistan
  • List of Countries
  • For 7 days
  • Water Temperature
  • Satellite Maps
  • Weather Map
  • Weather Widgets
  • user-avatar
    Login

    Hourly Weather Kroscienko

    Today, 11 December, Tuesday

    Time Temperature Precipitation Wind Pressure Humidity
    00:00 -2°C° 0 mm 3 mps 720 mmHg 90%
    01:00 -2°C° 0 mm 3 mps 720 mmHg 90%
    02:00 -2°C° 0 mm 3 mps 720 mmHg 89%
    03:00 -2°C° 0 mm 3 mps 720 mmHg 89%
    04:00 -2°C° 0 mm 2 mps 720 mmHg 88%
    05:00 -2°C° 0 mm 2 mps 720 mmHg 88%
    06:00 -2°C° 0 mm 2 mps 720 mmHg 88%
    07:00 -2°C° 0 mm 2 mps 721 mmHg 89%
    08:00 -1°C° 0 mm 1 mps 721 mmHg 89%
    09:00 0°C° 0 mm 1 mps 721 mmHg 85%
    10:00 -1°C° 0 mm 2 mps 721 mmHg 80%
    11:00 +1°C° 0 mm 2 mps 721 mmHg 75%
    12:00 +1°C° 0 mm 2 mps 721 mmHg 74%
    13:00 0°C° 0 mm 3 mps 721 mmHg 72%
    14:00 +1°C° 0 mm 3 mps 721 mmHg 71%
    15:00 0°C° 0 mm 3 mps 721 mmHg 75%
    16:00 -1°C° 0 mm 3 mps 721 mmHg 80%
    17:00 -2°C° 0 mm 2 mps 721 mmHg 84%
    18:00 -2°C° 0 mm 2 mps 721 mmHg 85%
    19:00 -2°C° 0 mm 2 mps 721 mmHg 86%
    20:00 -2°C° 0 mm 2 mps 722 mmHg 87%
    21:00 -2°C° 0 mm 2 mps 722 mmHg 88%
    22:00 -2°C° 0 mm 2 mps 722 mmHg 89%
    23:00 -1°C° 0 mm 1 mps 722 mmHg 90%

    Tomorrow, 12 December, Wednesday

    Time Temperature Precipitation Wind Pressure Humidity
    00:00 -1°C° 0 mm 1 mps 722 mmHg 90%
    01:00 -1°C° 0 mm 1 mps 722 mmHg 91%
    02:00 -1°C° 0 mm 1 mps 722 mmHg 91%
    03:00 0°C° 0.1 mm 1 mps 722 mmHg 91%
    04:00 0°C° 0.1 mm 1 mps 722 mmHg 90%
    05:00 -1°C° 0.1 mm 0 mps 722 mmHg 90%
    06:00 -1°C° 0 mm 0 mps 723 mmHg 90%
    07:00 -1°C° 0 mm 0 mps 723 mmHg 91%
    08:00 -1°C° 0 mm 0 mps 723 mmHg 91%
    09:00 0°C° 0 mm 1 mps 724 mmHg 88%
    10:00 +1°C° 0 mm 1 mps 724 mmHg 85%
    11:00 +1°C° 0 mm 1 mps 724 mmHg 82%
    12:00 +1°C° 0 mm 1 mps 724 mmHg 81%
    13:00 +2°C° 0 mm 1 mps 725 mmHg 80%
    14:00 +1°C° 0 mm 2 mps 725 mmHg 79%
    15:00 -1°C° 0 mm 2 mps 725 mmHg 82%
    16:00 -2°C° 0 mm 2 mps 725 mmHg 86%
    17:00 -3°C° 0 mm 2 mps 725 mmHg 89%
    18:00 -3°C° 0 mm 2 mps 725 mmHg 90%
    19:00 -3°C° 0 mm 2 mps 725 mmHg 90%
    20:00 -3°C° 0 mm 2 mps 725 mmHg 90%
    21:00 -3°C° 0 mm 2 mps 726 mmHg 90%
    22:00 -3°C° 0 mm 2 mps 726 mmHg 90%
    23:00 -3°C° 0 mm 2 mps 726 mmHg 90%

    Day after tomorrow, 13 December, Thursday

    Time Temperature Precipitation Wind Pressure Humidity
    00:00 -4°C° 0.2 mm 3 mps 726 mmHg 90%
    01:00 -4°C° 0.2 mm 3 mps 726 mmHg 91%
    02:00 -4°C° 0.2 mm 3 mps 726 mmHg 91%
    03:00 -4°C° 0.2 mm 3 mps 726 mmHg 91%
    04:00 -4°C° 0.2 mm 3 mps 725 mmHg 91%
    05:00 -4°C° 0.2 mm 3 mps 725 mmHg 91%
    06:00 -4°C° 0.4 mm 3 mps 725 mmHg 92%
    07:00 -4°C° 0.4 mm 3 mps 725 mmHg 92%
    08:00 -4°C° 0.4 mm 3 mps 725 mmHg 92%
    09:00 -4°C° 0.4 mm 3 mps 725 mmHg 91%
    10:00 -2°C° 0.4 mm 3 mps 725 mmHg 91%
    11:00 -2°C° 0.4 mm 3 mps 725 mmHg 90%
    12:00 -2°C° 0.3 mm 3 mps 725 mmHg 90%
    13:00 -2°C° 0.3 mm 3 mps 725 mmHg 90%
    14:00 -2°C° 0.3 mm 3 mps 725 mmHg 90%
    15:00 -2°C° 0.3 mm 3 mps 725 mmHg 91%
    16:00 -2°C° 0.3 mm 3 mps 725 mmHg 92%
    17:00 -2°C° 0.3 mm 2 mps 725 mmHg 94%
    18:00 -2°C° 0.2 mm 2 mps 725 mmHg 94%
    19:00 -3°C° 0.2 mm 2 mps 725 mmHg 95%
    20:00 -3°C° 0.2 mm 2 mps 725 mmHg 95%
    21:00 -3°C° 0.2 mm 2 mps 726 mmHg 95%
    22:00 -3°C° 0.2 mm 2 mps 726 mmHg 95%
    23:00 -3°C° 0.2 mm 2 mps 726 mmHg 96%

    14 December, Friday

    Time Temperature Precipitation Wind Pressure Humidity
    00:00 -3°C° 0.2 mm 2 mps 726 mmHg 96%
    01:00 -3°C° 0.2 mm 2 mps 726 mmHg 96%
    02:00 -1°C° 0.2 mm 1 mps 727 mmHg 96%
    03:00 -1°C° 0.1 mm 1 mps 727 mmHg 96%
    04:00 -1°C° 0.1 mm 1 mps 727 mmHg 96%
    05:00 -1°C° 0.1 mm 1 mps 727 mmHg 96%
    06:00 -1°C° 0.1 mm 1 mps 727 mmHg 96%
    07:00 -1°C° 0.1 mm 1 mps 727 mmHg 96%
    08:00 -1°C° 0.1 mm 1 mps 727 mmHg 96%
    09:00 -1°C° 0.1 mm 1 mps 728 mmHg 94%
    10:00 0°C° 0.1 mm 1 mps 728 mmHg 93%
    11:00 0°C° 0.1 mm 1 mps 728 mmHg 91%
    12:00 0°C° 0.1 mm 1 mps 729 mmHg 91%
    13:00 0°C° 0.1 mm 1 mps 729 mmHg 90%
    14:00 +1°C° 0.1 mm 1 mps 729 mmHg 89%
    15:00 0°C° 0.1 mm 1 mps 729 mmHg 91%
    16:00 0°C° 0.1 mm 1 mps 729 mmHg 93%
    17:00 -1°C° 0.1 mm 1 mps 729 mmHg 95%
    18:00 -1°C° 0.1 mm 1 mps 730 mmHg 95%
    19:00 -1°C° 0.1 mm 1 mps 730 mmHg 96%
    20:00 -1°C° 0.1 mm 1 mps 731 mmHg 96%
    21:00 -1°C° 0 mm 1 mps 731 mmHg 96%
    22:00 -1°C° 0 mm 1 mps 731 mmHg 96%
    23:00 -2°C° 0 mm 0 mps 731 mmHg 96%

    15 December, Saturday

    Time Temperature Precipitation Wind Pressure Humidity
    00:00 -3°C° 0 mm 0 mps 731 mmHg 96%
    01:00 -3°C° 0 mm 0 mps 731 mmHg 96%
    02:00 -3°C° 0 mm 0 mps 732 mmHg 96%
    03:00 -4°C° 0 mm 0 mps 732 mmHg 95%
    04:00 -4°C° 0 mm 0 mps 732 mmHg 95%
    05:00 -4°C° 0 mm 0 mps 732 mmHg 95%
    06:00 -4°C° 0 mm 0 mps 732 mmHg 94%
    07:00 -3°C° 0 mm 1 mps 732 mmHg 94%
    08:00 -3°C° 0 mm 1 mps 732 mmHg 94%
    09:00 -3°C° 0 mm 1 mps 733 mmHg 91%
    10:00 -2°C° 0 mm 1 mps 733 mmHg 88%
    11:00 -2°C° 0 mm 1 mps 733 mmHg 86%
    12:00 -1°C° 0 mm 1 mps 733 mmHg 85%
    13:00 -1°C° 0 mm 1 mps 733 mmHg 84%
    14:00 -1°C° 0 mm 1 mps 733 mmHg 83%
    15:00 -1°C° 0 mm 1 mps 733 mmHg 86%
    16:00 -2°C° 0 mm 1 mps 733 mmHg 89%
    17:00 -3°C° 0 mm 1 mps 733 mmHg 92%
    18:00 -3°C° 0 mm 1 mps 733 mmHg 93%
    19:00 -3°C° 0 mm 1 mps 733 mmHg 93%
    20:00 -4°C° 0 mm 1 mps 733 mmHg 94%
    21:00 -4°C° 0 mm 1 mps 733 mmHg 94%
    22:00 -4°C° 0 mm 1 mps 733 mmHg 94%
    23:00 -6°C° 0 mm 1 mps 733 mmHg 94%

    16 December, Sunday

    Time Temperature Precipitation Wind Pressure Humidity
    00:00 -6°C° 0 mm 1 mps 733 mmHg 94%
    01:00 -6°C° 0 mm 1 mps 733 mmHg 95%
    02:00 -6°C° 0 mm 1 mps 733 mmHg 95%
    03:00 -6°C° 0 mm 1 mps 733 mmHg 95%
    04:00 -4°C° 0 mm 1 mps 733 mmHg 95%
    05:00 -4°C° 0 mm 1 mps 733 mmHg 95%
    06:00 -4°C° 0 mm 1 mps 733 mmHg 95%
    07:00 -4°C° 0 mm 1 mps 733 mmHg 95%
    08:00 -4°C° 0 mm 1 mps 733 mmHg 95%
    09:00 -4°C° 0 mm 1 mps 733 mmHg 92%
    10:00 -3°C° 0 mm 1 mps 733 mmHg 90%
    11:00 -3°C° 0 mm 1 mps 733 mmHg 87%
    12:00 -2°C° 0 mm 1 mps 733 mmHg 86%
    13:00 -2°C° 0 mm 1 mps 733 mmHg 84%
    14:00 -2°C° 0 mm 1 mps 732 mmHg 83%
    15:00 -2°C° 0 mm 1 mps 732 mmHg 85%
    16:00 -2°C° 0 mm 1 mps 732 mmHg 87%
    17:00 -3°C° 0 mm 1 mps 732 mmHg 89%
    18:00 -3°C° 0 mm 1 mps 732 mmHg 90%
    19:00 -4°C° 0 mm 1 mps 732 mmHg 91%
    20:00 -4°C° 0 mm 1 mps 733 mmHg 92%
    21:00 -6°C° 0 mm 1 mps 732 mmHg 93%
    22:00 -6°C° 0 mm 1 mps 732 mmHg 93%
    23:00 -6°C° 0 mm 1 mps 732 mmHg 93%
    Show more